#timestamp,LO_Frequency,Hit,Temp,Hum 
1480136415.5,286046937.8,N,0.0,0.0
1480136435.4,286046937.5,N,0.0,0.0
1480136455.2,286046940.3,N,0.0,0.0
1480136475.1,286046939.6,N,0.0,0.0
1480136476.0,286046939.6,N,0.0,0.0
1480136495.8,286046939.6,N,0.0,0.0
1480136515.6,286046940.1,N,0.0,0.0
1480136535.5,286046940.1,N,0.0,0.0
1480136555.3,286046937.4,N,0.0,0.0
1480136575.2,286046937.7,N,0.0,0.0
1480136595.9,286046937.4,N,0.0,0.0
1480136615.7,286046940.4,N,0.0,0.0
1480136635.6,286046937.3,N,0.0,0.0
1480136655.4,286046940.4,N,0.0,0.0
1480136675.2,286046937.7,N,0.0,0.0
1480136695.1,286046940.0,N,0.0,0.0
1480136696.0,286046940.0,N,0.0,0.0
1480136715.8,286046937.7,N,0.0,0.0
1480136735.7,286046939.7,N,0.0,0.0
1480136755.5,286046939.7,N,0.0,0.0
1480136775.3,286046939.6,N,0.0,0.0
1480136795.2,286046939.5,N,0.0,0.0
1480136815.0,286046939.4,N,0.0,0.0
1480136815.9,286046939.4,N,0.0,0.0
1480136835.8,286046939.1,N,0.0,0.0
1480136855.6,286046939.0,N,0.0,0.0
1480136875.4,286046941.9,N,0.0,0.0
1480136895.3,286046941.6,N,0.0,0.0
1480136915.1,286046941.5,N,0.0,0.0
1480136935.9,286046941.9,N,0.0,0.0
1480136955.7,286046940.7,N,0.0,0.0
1480136975.5,286046941.6,N,0.0,0.0
1480136995.4,286046938.9,N,0.0,0.0
1480137015.2,286046941.4,N,0.0,0.0
1480137035.0,286046941.5,N,0.0,0.0
1480137036.0,286046941.5,N,0.0,0.0
1480137055.8,286046943.5,N,0.0,0.0
1480137075.6,286046943.4,N,0.0,0.0
1480137095.5,286046943.4,N,0.0,0.0
1480137115.3,286046940.6,N,0.0,0.0
1480137135.1,286046943.5,N,0.0,0.0
1480137155.9,286046943.2,N,0.0,0.0
1480137175.7,286046943.3,N,0.0,0.0
1480137195.6,286046941.0,N,0.0,0.0
1480137215.4,286046943.3,N,0.0,0.0
1480137235.2,286046942.9,N,0.0,0.0
1480137255.1,286046940.5,N,0.0,0.0
1480137256.0,286046940.5,N,0.0,0.0
1480137275.8,286046943.4,N,0.0,0.0
1480137295.7,286046943.0,N,0.0,0.0
1480137315.5,286046943.1,N,0.0,0.0
1480137335.3,286046942.3,N,0.0,0.0
1480137355.2,286046942.7,N,0.0,0.0
1480137375.0,286046942.4,N,0.0,0.0
1480137375.9,286046942.4,N,0.0,0.0
1480137395.8,286046942.6,N,0.0,0.0
1480137415.6,286046945.2,N,0.0,0.0
1480137435.4,286046942.6,N,0.0,0.0
1480137455.3,286046942.8,N,0.0,0.0
1480137475.1,286046943.0,N,0.0,0.0
1480137495.8,286046943.1,N,0.0,0.0
1480137515.7,286046943.3,N,0.0,0.0
1480137535.5,286046942.5,N,0.0,0.0
1480137555.4,286046942.6,N,0.0,0.0
1480137575.2,286046944.1,N,0.0,0.0
1480137595.0,286046945.3,N,0.0,0.0
1480137595.9,286046945.3,N,0.0,0.0
1480137615.8,286046946.3,N,0.0,0.0
1480137635.6,286046946.6,N,0.0,0.0
1480137655.4,286046944.4,N,0.0,0.0
1480137675.3,286046945.0,N,0.0,0.0
1480137695.1,286046943.7,N,0.0,0.0
1480137715.9,286046943.8,N,0.0,0.0
1480137735.7,286046946.5,N,0.0,0.0
1480137755.5,286046946.0,N,0.0,0.0
1480137775.4,286046946.2,N,0.0,0.0
1480137795.2,286046945.4,N,0.0,0.0
1480137815.1,286046946.2,N,0.0,0.0
1480137816.0,286046946.2,N,0.0,0.0
1480137835.8,286046945.9,N,0.0,0.0
1480137855.6,286046944.2,N,0.0,0.0
1480137875.5,286046944.8,N,0.0,0.0
1480137895.3,286046943.0,N,0.0,0.0
1480137915.1,286046943.0,N,0.0,0.0
1480137935.9,286046940.9,N,0.0,0.0
1480137955.7,286046941.4,N,0.0,0.0
1480137975.6,286046941.3,N,0.0,0.0
1480137995.4,286046941.7,N,0.0,0.0
1480138015.2,286046939.3,N,0.0,0.0
1480138035.1,286046939.7,N,0.0,0.0
1480138036.0,286046939.7,N,0.0,0.0
1480138055.8,286046940.2,N,0.0,0.0
1480138075.7,286046940.2,N,0.0,0.0
1480138095.5,286046939.8,N,0.0,0.0
1480138115.3,286046940.4,N,0.0,0.0
1480138135.2,286046939.9,N,0.0,0.0
1480138155.9,286046937.4,N,0.0,0.0
1480138175.7,286046937.8,N,0.0,0.0
1480138195.6,286046937.5,N,0.0,0.0
1480138215.4,286046937.4,N,0.0,0.0
1480138235.3,286046937.7,N,0.0,0.0
1480138255.1,286046938.5,N,0.0,0.0
1480138256.0,286046938.5,N,0.0,0.0
1480138275.8,286046938.3,N,0.0,0.0
1480138295.7,286046938.2,N,0.0,0.0
1480138315.5,286046936.0,N,0.0,0.0
1480138335.3,286046936.6,N,0.0,0.0
1480138355.2,286046936.2,N,0.0,0.0
1480138375.0,286046938.7,N,0.0,0.0
1480138375.9,286046938.7,N,0.0,0.0
1480138395.8,286046938.5,N,0.0,0.0
1480138415.6,286046936.1,N,0.0,0.0
1480138435.4,286046938.4,N,0.0,0.0
1480138455.3,286046938.5,N,0.0,0.0
1480138475.1,286046938.4,N,0.0,0.0
1480138495.9,286046938.8,N,0.0,0.0
1480138515.7,286046938.5,N,0.0,0.0
1480138535.5,286046938.5,N,0.0,0.0
1480138555.4,286046937.3,N,0.0,0.0
1480138575.2,286046938.4,N,0.0,0.0
1480138595.1,286046938.3,N,0.0,0.0
1480138596.0,286046938.3,N,0.0,0.0
1480138615.8,286046936.2,N,0.0,0.0
1480138635.6,286046936.6,N,0.0,0.0
1480138655.5,286046937.1,N,0.0,0.0
1480138675.3,286046936.8,N,0.0,0.0
1480138695.1,286046936.6,N,0.0,0.0
1480138715.9,286046936.7,N,0.0,0.0
1480138735.7,286046934.5,N,0.0,0.0
1480138755.6,286046934.6,N,0.0,0.0
1480138775.4,286046934.5,N,0.0,0.0
1480138795.2,286046934.1,N,0.0,0.0
1480138815.1,286046935.3,N,0.0,0.0
1480138816.0,286046935.3,N,0.0,0.0
1480138835.8,286046932.5,N,0.0,0.0
1480138855.7,286046934.7,N,0.0,0.0
1480138875.5,286046932.7,N,0.0,0.0
1480138895.3,286046933.1,N,0.0,0.0
1480138915.2,286046933.2,N,0.0,0.0
1480138935.0,286046933.3,N,0.0,0.0
1480138935.9,286046933.3,N,0.0,0.0
1480138955.8,286046933.2,N,0.0,0.0
1480138975.6,286046933.2,N,0.0,0.0
1480138995.4,286046931.3,N,0.0,0.0
1480139015.3,286046932.1,N,0.0,0.0
1480139035.1,286046931.9,N,0.0,0.0
1480139055.8,286046932.3,N,0.0,0.0
1480139075.7,286046932.2,N,0.0,0.0
1480139095.5,286046929.7,N,0.0,0.0
1480139115.4,286046930.0,N,0.0,0.0
1480139135.2,286046930.2,N,0.0,0.0
1480139155.0,286046930.1,N,0.0,0.0
1480139155.9,286046930.1,N,0.0,0.0
1480139175.8,286046929.6,N,0.0,0.0
1480139195.6,286046930.1,N,0.0,0.0
1480139215.4,286046930.1,N,0.0,0.0
1480139235.3,286046927.7,N,0.0,0.0
1480139255.1,286046930.7,N,0.0,0.0
1480139275.9,286046927.9,N,0.0,0.0
1480139295.7,286046928.2,N,0.0,0.0
1480139315.5,286046928.0,N,0.0,0.0
1480139335.4,286046927.9,N,0.0,0.0
1480139355.2,286046928.8,N,0.0,0.0
1480139375.0,286046928.8,N,0.0,0.0
1480139375.9,286046928.8,N,0.0,0.0
1480139395.8,286046927.3,N,0.0,0.0
1480139415.6,286046926.8,N,0.0,0.0
1480139435.5,286046927.0,N,0.0,0.0
1480139455.3,286046927.3,N,0.0,0.0
1480139475.1,286046924.9,N,0.0,0.0
1480139495.9,286046927.6,N,0.0,0.0
1480139515.7,286046924.9,N,0.0,0.0
1480139535.6,286046925.8,N,0.0,0.0
1480139555.4,286046923.0,N,0.0,0.0
1480139575.2,286046923.2,N,0.0,0.0
1480139595.1,286046923.3,N,0.0,0.0
1480139596.0,286046923.3,N,0.0,0.0
1480139615.8,286046926.0,N,0.0,0.0
1480139635.7,286046925.1,N,0.0,0.0
1480139655.5,286046925.4,N,0.0,0.0
1480139675.3,286046923.2,N,0.0,0.0
1480139695.2,286046923.4,N,0.0,0.0
1480139715.0,286046924.3,N,0.0,0.0
1480139715.9,286046924.3,N,0.0,0.0
1480139735.7,286046921.5,N,0.0,0.0
1480139755.6,286046921.8,N,0.0,0.0
1480139775.4,286046922.2,N,0.0,0.0
1480139795.3,286046922.4,N,0.0,0.0
1480139815.1,286046922.7,N,0.0,0.0
1480139835.8,286046919.8,N,0.0,0.0
1480139855.7,286046919.7,N,0.0,0.0
1480139875.5,286046920.5,N,0.0,0.0
1480139895.4,286046920.4,N,0.0,0.0
1480139915.2,286046918.1,N,0.0,0.0
1480139935.0,286046918.8,N,0.0,0.0
1480139935.9,286046918.8,N,0.0,0.0
1480139955.8,286046919.4,N,0.0,0.0
1480139975.6,286046919.4,N,0.0,0.0
1480139995.4,286046919.3,N,0.0,0.0
